• în România
  • Lista ţărilor
  • Pe 7 zile
  • Temperatura apei
  • Hartă satelitară
  • Meteo pe hartă
  • Widget-uri
  • user-avatar
    Intrare

    Meteo pe oră la Mashkovo

    Astăzi, 20 Iulie, Vineri

    Timp Temperatura Precipitaţii Vânt Presiune Umiditate
    00:00 +18°C° 0,3 mm 3 m/s 733 mmHg 98%
    01:00 +18°C° 0 mm 2 m/s 733 mmHg 98%
    02:00 +18°C° 0 mm 2 m/s 733 mmHg 98%
    03:00 +18°C° 0 mm 2 m/s 733 mmHg 98%
    04:00 +18°C° 0 mm 2 m/s 733 mmHg 98%
    05:00 +18°C° 0 mm 2 m/s 734 mmHg 97%
    06:00 +18°C° 0 mm 2 m/s 734 mmHg 97%
    07:00 +19°C° 0 mm 2 m/s 734 mmHg 94%
    08:00 +20°C° 0 mm 2 m/s 734 mmHg 91%
    09:00 +21°C° 0 mm 3 m/s 734 mmHg 88%
    10:00 +23°C° 0,1 mm 2 m/s 734 mmHg 84%
    11:00 +24°C° 0,1 mm 2 m/s 735 mmHg 79%
    12:00 +26°C° 0,1 mm 2 m/s 735 mmHg 75%
    13:00 +26°C° 0,6 mm 2 m/s 735 mmHg 73%
    14:00 +27°C° 0,6 mm 3 m/s 735 mmHg 71%
    15:00 +28°C° 0,6 mm 3 m/s 735 mmHg 70%
    16:00 +27°C° 0,7 mm 3 m/s 735 mmHg 73%
    17:00 +27°C° 0,7 mm 3 m/s 734 mmHg 77%
    18:00 +27°C° 0,7 mm 3 m/s 734 mmHg 80%
    19:00 +25°C° 0,8 mm 3 m/s 735 mmHg 84%
    20:00 +24°C° 0,8 mm 3 m/s 735 mmHg 88%
    21:00 +22°C° 0,8 mm 3 m/s 735 mmHg 92%
    22:00 +21°C° 0,3 mm 2 m/s 735 mmHg 93%
    23:00 +20°C° 0,3 mm 2 m/s 735 mmHg 94%

    Mâine, 21 Iulie, Sâmbătă

    Timp Temperatura Precipitaţii Vânt Presiune Umiditate
    00:00 +20°C° 0,3 mm 2 m/s 735 mmHg 94%
    01:00 +20°C° 0 mm 2 m/s 735 mmHg 94%
    02:00 +19°C° 0 mm 2 m/s 735 mmHg 94%
    03:00 +19°C° 0 mm 2 m/s 735 mmHg 95%
    04:00 +19°C° 0,2 mm 2 m/s 735 mmHg 95%
    05:00 +20°C° 0,2 mm 2 m/s 735 mmHg 95%
    06:00 +20°C° 0,2 mm 2 m/s 736 mmHg 96%
    07:00 +21°C° 0,4 mm 2 m/s 736 mmHg 92%
    08:00 +23°C° 0,4 mm 2 m/s 736 mmHg 89%
    09:00 +24°C° 0,4 mm 3 m/s 736 mmHg 85%
    10:00 +25°C° 1,8 mm 3 m/s 736 mmHg 82%
    11:00 +26°C° 1,8 mm 3 m/s 736 mmHg 79%
    12:00 +27°C° 1,8 mm 3 m/s 735 mmHg 75%
    13:00 +27°C° 1,4 mm 3 m/s 735 mmHg 77%
    14:00 +26°C° 1,4 mm 3 m/s 735 mmHg 79%
    15:00 +26°C° 1,4 mm 3 m/s 735 mmHg 81%
    16:00 +26°C° 0,5 mm 3 m/s 735 mmHg 82%
    17:00 +26°C° 0,5 mm 3 m/s 735 mmHg 83%
    18:00 +26°C° 0,5 mm 3 m/s 735 mmHg 84%
    19:00 +25°C° 0,4 mm 3 m/s 736 mmHg 87%
    20:00 +24°C° 0,4 mm 3 m/s 736 mmHg 89%
    21:00 +22°C° 0,4 mm 3 m/s 736 mmHg 92%
    22:00 +21°C° 0,1 mm 3 m/s 736 mmHg 93%
    23:00 +21°C° 0,1 mm 3 m/s 736 mmHg 95%

    Poimâine, 22 Iulie, Duminică

    Timp Temperatura Precipitaţii Vânt Presiune Umiditate
    00:00 +20°C° 0,1 mm 3 m/s 736 mmHg 96%
    01:00 +20°C° 0,3 mm 3 m/s 736 mmHg 97%
    02:00 +20°C° 0,3 mm 3 m/s 736 mmHg 97%
    03:00 +20°C° 0,3 mm 3 m/s 736 mmHg 98%
    04:00 +20°C° 0,4 mm 3 m/s 736 mmHg 97%
    05:00 +20°C° 0,4 mm 3 m/s 736 mmHg 97%
    06:00 +20°C° 0,4 mm 3 m/s 736 mmHg 97%
    07:00 +20°C° 0 mm 3 m/s 736 mmHg 96%
    08:00 +21°C° 0 mm 3 m/s 736 mmHg 95%
    09:00 +21°C° 0 mm 3 m/s 736 mmHg 94%
    10:00 +22°C° 0,3 mm 3 m/s 736 mmHg 93%
    11:00 +22°C° 0,3 mm 3 m/s 736 mmHg 93%
    12:00 +22°C° 0,3 mm 3 m/s 736 mmHg 92%
    13:00 +23°C° 0,1 mm 4 m/s 736 mmHg 91%
    14:00 +23°C° 0,1 mm 4 m/s 736 mmHg 89%
    15:00 +25°C° 0,1 mm 4 m/s 736 mmHg 88%
    16:00 +25°C° 0,4 mm 4 m/s 736 mmHg 87%
    17:00 +25°C° 0,4 mm 4 m/s 736 mmHg 87%
    18:00 +25°C° 0,4 mm 4 m/s 736 mmHg 87%
    19:00 +23°C° 0,6 mm 4 m/s 736 mmHg 90%
    20:00 +22°C° 0,6 mm 4 m/s 736 mmHg 92%
    21:00 +21°C° 0,6 mm 4 m/s 736 mmHg 95%
    22:00 +21°C° 0,7 mm 4 m/s 736 mmHg 96%
    23:00 +20°C° 0,7 mm 4 m/s 736 mmHg 96%

    23 Iulie, Luni

    Timp Temperatura Precipitaţii Vânt Presiune Umiditate
    00:00 +20°C° 0,7 mm 4 m/s 736 mmHg 97%
    01:00 +20°C° 0,3 mm 4 m/s 735 mmHg 97%
    02:00 +20°C° 0,3 mm 4 m/s 735 mmHg 97%
    03:00 +20°C° 0,3 mm 4 m/s 735 mmHg 97%
    04:00 +20°C° 0,1 mm 4 m/s 735 mmHg 97%
    05:00 +20°C° 0,1 mm 4 m/s 735 mmHg 97%
    06:00 +20°C° 0,1 mm 4 m/s 735 mmHg 97%
    07:00 +21°C° 0,1 mm 4 m/s 735 mmHg 96%
    08:00 +21°C° 0,1 mm 4 m/s 735 mmHg 95%
    09:00 +21°C° 0,1 mm 4 m/s 736 mmHg 94%
    10:00 +22°C° 0,2 mm 4 m/s 736 mmHg 92%
    11:00 +22°C° 0,2 mm 4 m/s 736 mmHg 90%
    12:00 +23°C° 0,2 mm 4 m/s 736 mmHg 89%
    13:00 +25°C° 0,6 mm 4 m/s 736 mmHg 87%
    14:00 +25°C° 0,6 mm 3 m/s 736 mmHg 86%
    15:00 +26°C° 0,6 mm 3 m/s 736 mmHg 84%
    16:00 +26°C° 0,6 mm 3 m/s 736 mmHg 85%
    17:00 +25°C° 0,6 mm 3 m/s 736 mmHg 86%
    18:00 +25°C° 0,6 mm 3 m/s 736 mmHg 86%
    19:00 +24°C° 0,4 mm 3 m/s 736 mmHg 89%
    20:00 +22°C° 0,4 mm 3 m/s 736 mmHg 92%
    21:00 +21°C° 0,4 mm 2 m/s 737 mmHg 94%
    22:00 +21°C° 0,1 mm 2 m/s 737 mmHg 95%
    23:00 +20°C° 0,1 mm 2 m/s 737 mmHg 95%

    24 Iulie, Marţi

    Timp Temperatura Precipitaţii Vânt Presiune Umiditate
    00:00 +20°C° 0,1 mm 2 m/s 737 mmHg 95%
    01:00 +19°C° 0 mm 2 m/s 737 mmHg 95%
    02:00 +19°C° 0 mm 2 m/s 737 mmHg 95%
    03:00 +18°C° 0 mm 2 m/s 738 mmHg 95%
    04:00 +18°C° 0 mm 2 m/s 738 mmHg 95%
    05:00 +19°C° 0 mm 2 m/s 738 mmHg 95%
    06:00 +19°C° 0 mm 2 m/s 738 mmHg 95%
    07:00 +20°C° 0 mm 2 m/s 739 mmHg 90%
    08:00 +21°C° 0 mm 2 m/s 739 mmHg 86%
    09:00 +23°C° 0 mm 2 m/s 739 mmHg 82%
    10:00 +24°C° 0 mm 2 m/s 739 mmHg 78%
    11:00 +25°C° 0 mm 2 m/s 740 mmHg 74%
    12:00 +26°C° 0 mm 2 m/s 740 mmHg 71%
    13:00 +27°C° 0 mm 2 m/s 740 mmHg 68%
    14:00 +28°C° 0 mm 2 m/s 740 mmHg 66%
    15:00 +28°C° 0 mm 2 m/s 740 mmHg 64%
    16:00 +28°C° 0,1 mm 2 m/s 740 mmHg 67%
    17:00 +28°C° 0,1 mm 2 m/s 740 mmHg 70%
    18:00 +28°C° 0,1 mm 3 m/s 740 mmHg 74%
    19:00 +26°C° 0,1 mm 2 m/s 740 mmHg 80%
    20:00 +24°C° 0,1 mm 2 m/s 740 mmHg 85%
    21:00 +23°C° 0,1 mm 2 m/s 741 mmHg 91%
    22:00 +21°C° 0,1 mm 2 m/s 741 mmHg 93%
    23:00 +21°C° 0,1 mm 2 m/s 741 mmHg 94%

    25 Iulie, Miercuri

    Timp Temperatura Precipitaţii Vânt Presiune Umiditate
    00:00 +20°C° 0,1 mm 2 m/s 741 mmHg 95%
    01:00 +20°C° 0,4 mm 3 m/s 741 mmHg 96%
    02:00 +20°C° 0,4 mm 3 m/s 741 mmHg 96%
    03:00 +20°C° 0,4 mm 3 m/s 742 mmHg 96%
    04:00 +20°C° 0,1 mm 3 m/s 742 mmHg 95%
    05:00 +20°C° 0,1 mm 3 m/s 742 mmHg 94%
    06:00 +20°C° 0,1 mm 3 m/s 742 mmHg 94%
    07:00 +20°C° 0,2 mm 3 m/s 742 mmHg 91%
    08:00 +20°C° 0,2 mm 2 m/s 743 mmHg 88%
    09:00 +21°C° 0,2 mm 2 m/s 743 mmHg 85%
    10:00 +21°C° 0,3 mm 2 m/s 743 mmHg 84%
    11:00 +22°C° 0,3 mm 3 m/s 743 mmHg 83%
    12:00 +22°C° 0,3 mm 3 m/s 743 mmHg 82%
    13:00 +22°C° 0,3 mm 3 m/s 743 mmHg 81%
    14:00 +22°C° 0,3 mm 4 m/s 742 mmHg 80%
    15:00 +21°C° 0,3 mm 4 m/s 742 mmHg 79%
    16:00 +21°C° 0,1 mm 4 m/s 742 mmHg 81%
    17:00 +20°C° 0,1 mm 4 m/s 742 mmHg 82%
    18:00 +19°C° 0,1 mm 4 m/s 742 mmHg 84%
    19:00 +19°C° 0,2 mm 4 m/s 742 mmHg 85%
    20:00 +19°C° 0,2 mm 4 m/s 742 mmHg 86%
    21:00 +19°C° 0,2 mm 5 m/s 742 mmHg 87%
    22:00 +19°C° 0 mm 4 m/s 742 mmHg 89%
    23:00 +18°C° 0 mm 4 m/s 742 mmHg 92%
    Arată mai mult